Simultaneous Nadir Overpasses (SNOs) Predictions

Prediction of SNOs between GOES-14 and AQUA Satellite Orbit:

Table of predicted SNOs for the next 14.0 days since TLE Epoch: 2/4/2023
Index Date Time (GOES-14) GOES-14 Lat,Lon AQUA Lat,Lon Distance(km) Time Diff (sec)
1 02/04/2023 20:59:52 -0.00,-108.86 -0.07,-109.16 34.95 80
2 02/06/2023 20:49:21 0.00,-109.86 0.81,-105.98 440.81 80
3 02/07/2023 09:10:21 -0.00,-109.97 0.23,-111.07 125.48 80
4 02/09/2023 08:54:30 -0.01,-110.96 -0.68,-107.89 349.36 80
5 02/09/2023 21:15:39 0.00,-111.36 -0.32,-113.03 189.51 80
6 02/11/2023 21:05:07 0.01,-112.36 0.57,-109.84 286.81 80
7 02/12/2023 09:26:06 -0.00,-112.49 0.52,-114.92 276.53 80
8 02/14/2023 09:10:13 -0.00,-113.47 -0.35,-111.73 197.99 80
9 02/14/2023 21:31:21 -0.00,-113.84 -0.63,-116.87 344.06 80
10 02/16/2023 21:20:47 -0.00,-114.83 0.22,-113.67 131.38 80
11 02/17/2023 09:41:47 0.01,-114.99 0.79,-118.77 429.07 80
